Location: Kergrach
(48.3833°N, 4.5167°W)
Time: 02:42:17
(UTC+00:00)

NOAA 6 - Pass Details

Date: 18 February 2020
Orbit: 771 x 788 km, 98.7° (Epoch: 03 April)

Event Time Altitude Azimuth Distance (km) Brightness Sun altitude
Rises 06:41:52 0° 10° (N) 3,292 7.3 -7.2°
Reaches altitude 10° 06:44:15 10° 6° (N) 2,357 6.5 -6.8°
Maximum altitude 06:49:16 52° 291° (WNW) 976 4.2 -6.0°
Drops below altitude 10° 06:54:15 10° 217° (SW) 2,331 6.3 -5.2°
Sets 06:56:35 0° 212° (SSW) 3,253 7.0 -4.8°
